Weather in Tatarskoye Uraykino

Russia / Ulyanovsk Oblast     54°25′26″N   49°15′00″E
temp.,
°C
wind,
m/s
gust,
m/s
humid.,
%
clouds,
%
prec.,
mm/h
press.,
hPa
HPBL,
m
15 may, sat
sat1501:00+18s3969100 0.0 1019141
04:00+17sse4116123 0.0 1019164
07:00+18s41157100 0.0 1019220
10:00+24s6104280 0.0 1019357
13:00+27s7123598 0.0 1019780
16:00+28s7113596 0.0 10191103
19:00+24s412497 0.0 1018298
22:00+20s4135062 0.0 1018221
16 may, sun
sun1601:00+19s514495 0.0 1018247
04:00+18sse5145134 0.0 1018237
07:00+19sse512575 0.0 1018265
10:00+24s611465 0.0 1018465
13:00+27s7113650 0.0 10181181
16:00+28ssw693465 0.0 10171895
19:00+24ssw3853100 0.0 1017180
22:00+20s3351100 0.0 101727
17 may, mon
mon1701:00+19sse3354100 0.0 101738
04:00+17s346286 0.0 101861
07:00+20ssw366110 0.0 1018137
10:00+25ssw35455 0.0 1018477
13:00+28ssw463790 0.0 1019991
16:00+30ssw352949 0.0 10182287
19:00+26s354827 0.0 1018102
22:00+21ssw224668 0.0 101811
18 may, tue
tue1801:00+19se364714 0.0 101976
04:00+18sse235399 0.0 101824
07:00+20sse235788 0.0 101885
10:00+26s353718 0.0 1018540
13:00+30sse3524100 0.0 10172017
16:00+30s462796 0.0 10172119
19:00+26sse114692 0.0 101613
22:00+21e33498 0.0 101626
19 may, wed
wed1901:00+19ese494652 0.0 1016122
04:00+18se484466 0.0 1016121
07:00+20se495148 0.0 1016179
10:00+27se573771 0.0 1015432
13:00+29se68287 0.0 10152683
16:00+30sse583224 0.0 10133109
19:00+23ese7135862 0.1 1013448
22:00+19ese613640 0.5 1012238